Location: Oregon Star Party
(44.2935°N, 120.1332°W)
Time: 00:04:34
(UTC-07:00)

Amateur Radio Satellites - All Passes

Search period start: 29 April 2017 23:34
Search period end: 30 April 2017 23:34
Location: Oregon Star Party, 44.2935°N, 120.1332°W

Satellite Date Start Highest point End Downlink Frequencies (MHz)
Time Altitude Azimuth
NO-84 29 Apr 23:35:47 23:37:41 15° 13° (NNE) 23:39:31 435.350 FM
BEESAT 2 29 Apr 23:36:12 23:39:31 24° 246° (WSW) 23:42:48 435.950
VELOX 1 29 Apr 23:37:30 23:41:15 27° 66° (ENE) 23:45:00 145.980
ESTCUBE 1 29 Apr 23:39:33 23:44:04 88° 264° (W) 23:48:38 437.505/2401.250
NANOSAT C BR1 29 Apr 23:47:00 23:49:00 13° 90° (E) 23:51:01 145.865
PRISM 29 Apr 23:48:43 23:52:11 26° 293° (WNW) 23:55:36 437.425
UNISAT 6 29 Apr 23:52:47 23:56:45 37° 290° (WNW) 00:00:45 437.425
SPROUT 30 Apr 00:11:33 00:15:42 53° 73° (ENE) 00:19:52 437.525
DUCHIFAT 1 30 Apr 00:13:39 00:17:00 23° 94° (E) 00:20:20 145.980
EO-79 30 Apr 00:15:52 00:19:34 29° 96° (E) 00:23:15 145.935-145.965
DX 1 30 Apr 00:17:15 00:20:57 27° 66° (ENE) 00:24:40 434.975-435.025
AIST 2D 30 Apr 00:27:34 00:31:07 86° 102° (ESE) 00:34:39 435.315
LO-87 30 Apr 00:32:11 00:33:04 11° 270° (W) 00:33:57 145.935 - 145.965
50 SAT 30 Apr 00:38:35 00:42:02 65° 75° (ENE) 00:45:32 437.505
POLYITAN 1 30 Apr 00:55:55 01:00:08 83° 103° (ESE) 01:04:20 437.675
BUGSAT 1 30 Apr 01:00:27 01:03:42 23° 95° (E) 01:06:55 437.445
QB50P2 30 Apr 01:02:46 01:06:59 77° 286° (WNW) 01:11:11 145.880/145.840
Oscar 19 30 Apr 01:04:10 01:04:57 10° 86° (E) 01:05:44 437.125/150
UKube-1 30 Apr 01:11:50 01:16:09 71° 74° (ENE) 01:20:29 .
NO-84 30 Apr 01:12:50 01:15:47 54° 34° (NE) 01:18:36 435.350 FM
VELOX 1 30 Apr 01:13:35 01:17:35 32° 264° (W) 01:21:36 145.980
FO-29 30 Apr 01:17:55 01:20:37 14° 302° (WNW) 01:23:24 435.910
NANOSAT C BR1 30 Apr 01:20:58 01:25:05 57° 287° (WNW) 01:29:11 145.865
Gurwin Techsat 1B 30 Apr 01:34:23 01:36:35 12° 88° (E) 01:38:48 435.225
PCSat 30 Apr 01:36:40 01:41:46 44° 113° (ESE) 01:46:55 145.827
DUCHIFAT 1 30 Apr 01:48:59 01:52:42 32° 291° (WNW) 01:56:26 145.980
SPROUT 30 Apr 01:49:33 01:51:56 15° 269° (W) 01:54:20 437.525
EO-79 30 Apr 01:51:45 01:55:13 26° 293° (WNW) 01:58:42 145.935-145.965
DX 1 30 Apr 01:53:10 01:57:02 30° 263° (W) 02:00:56 434.975-435.025
BEESAT 30 Apr 01:55:41 01:59:07 20° 62° (ENE) 02:02:34 436.000
POLYITAN 1 30 Apr 02:34:19 02:35:17 11° 300° (WNW) 02:36:15 437.675
BUGSAT 1 30 Apr 02:35:34 02:39:04 29° 292° (WNW) 02:42:34 437.445
ITUPSAT 1 30 Apr 02:37:32 02:42:04 47° 70° (ENE) 02:46:39 437.325
YUBILEINY 30 Apr 02:38:59 02:43:31 15° 74° (ENE) 02:48:03 435.215
Oscar 19 30 Apr 02:39:48 02:45:03 83° 104° (ESE) 02:50:15 437.125/150
UKube-1 30 Apr 02:51:11 02:52:39 11° 271° (W) 02:54:07 .
NO-84 30 Apr 02:51:29 02:52:53 13° 233° (SW) 02:54:15 435.350 FM
MOZHAYETS 4 30 Apr 02:51:58 02:55:59 32° 68° (ENE) 03:00:00
Gurwin Techsat 1B 30 Apr 03:11:53 03:17:14 87° 286° (WNW) 03:22:33 435.225
PCSat 30 Apr 03:20:27 03:25:18 32° 313° (NW) 03:30:11 145.827
BEESAT 30 Apr 03:31:55 03:36:32 50° 260° (W) 03:41:10 436.000
AO-7 30 Apr 03:43:46 03:51:00 32° 96° (E) 03:58:12 .
CUBESAT XI-V 30 Apr 03:53:29 03:57:18 26° 66° (ENE) 04:01:09 437.345
KKS-1 30 Apr 04:12:34 04:16:45 40° 70° (ENE) 04:20:56 437.445
ITAMSAT 1 30 Apr 04:14:02 04:19:08 56° 101° (E) 04:24:13 435.822/435.867
ITUPSAT 1 30 Apr 04:16:40 04:20:09 20° 267° (W) 04:23:39 437.325
Oscar 19 30 Apr 04:20:46 04:23:40 15° 302° (WNW) 04:26:35 437.125/150
MOZHAYETS 4 30 Apr 04:29:14 04:33:07 28° 265° (W) 04:37:03
YUBILEINY 30 Apr 04:30:06 04:38:45 77° 95° (E) 04:47:28 435.215
STARS 30 Apr 04:33:41 04:37:31 30° 67° (ENE) 04:41:20 437.465
SO-50 30 Apr 04:48:35 04:51:00 14° 109° (ESE) 04:53:25 436.795
Gurwin Techsat 1B 30 Apr 04:53:49 04:56:23 14° 303° (WNW) 04:58:58 435.225
CUBESAT XI-V 30 Apr 05:30:12 05:34:29 37° 263° (W) 05:38:51 437.345
AO-7 30 Apr 05:36:03 05:44:13 63° 295° (WNW) 05:52:23 .
DOVE 4 30 Apr 05:40:46 05:42:27 12° 87° (E) 05:44:06 437.250
KKS-1 30 Apr 05:50:02 05:53:27 21° 266° (W) 05:56:52 437.445
CUTE-I 30 Apr 05:53:30 05:54:13 10° 86° (E) 05:54:57 437.470
ITAMSAT 1 30 Apr 05:54:23 05:58:12 21° 299° (WNW) 06:02:01 435.822/435.867
M-CUBED/EXP-1 PRIME 30 Apr 05:54:29 05:56:44 13° 54° (NE) 05:58:57 437.505
STRAND 1 30 Apr 06:04:56 06:07:55 16° 59° (ENE) 06:10:54 437.568
XW-2D 30 Apr 06:09:02 06:11:00 13° 91° (E) 06:12:57 145.860 - 145.880
STARS 30 Apr 06:10:01 06:13:49 28° 264° (W) 06:17:37 437.465
RS-15 30 Apr 06:12:17 06:22:58 40° 106° (ESE) 06:33:53 29.354- 29.394
XW-2B 30 Apr 06:15:45 06:18:07 16° 92° (E) 06:20:28 145.730 - 145.750
KAITUO 1B 30 Apr 06:16:17 06:17:57 12° 90° (E) 06:19:38 145.475/437.950
SO-50 30 Apr 06:26:18 06:30:54 74° 307° (NW) 06:35:28 436.795
XW-2C 30 Apr 06:27:21 06:30:20 21° 94° (E) 06:33:19 145.795 - 145.815
YUBILEINY 30 Apr 06:29:39 06:36:31 25° 297° (WNW) 06:43:27 435.215
LilacSat-2 30 Apr 06:30:46 06:33:59 25° 95° (E) 06:37:11 437.200
NUDT-PHONESAT 30 Apr 06:48:43 06:52:01 29° 96° (E) 06:55:18 437.300
XW-2F 30 Apr 06:49:22 06:52:56 36° 98° (E) 06:56:28 145.980 - 146.000
ISS 30 Apr 07:00:39 07:03:20 24° 137° (SE) 07:06:03 437.550
DOVE 4 30 Apr 07:16:12 07:20:45 68° 286° (WNW) 07:25:00 437.250
M-CUBED/EXP-1 PRIME 30 Apr 07:25:48 07:30:28 90° 116° (ESE) 07:35:09 437.505
CUTE-I 30 Apr 07:29:44 07:35:05 81° 104° (ESE) 07:40:24 437.470
XW-2A 30 Apr 07:29:45 07:31:13 12° 91° (E) 07:32:42 145.665 - 145.685
AO-7 30 Apr 07:30:40 07:35:24 17° 317° (NW) 07:40:07 .
STRAND 1 30 Apr 07:41:23 07:46:29 76° 257° (WSW) 07:51:36 437.568
XW-2D 30 Apr 07:41:45 07:45:26 46° 287° (WNW) 07:49:07 145.860 - 145.880
Tancredo 1 30 Apr 07:43:24 07:46:29 78° 148° (SSE) 07:49:35 437.200
KAITUO 1B 30 Apr 07:48:35 07:52:15 49° 287° (WNW) 07:55:55 145.475/437.950
XW-2B 30 Apr 07:48:53 07:52:29 40° 288° (WNW) 07:56:04 145.730 - 145.750
XW-2C 30 Apr 08:01:13 08:04:32 29° 290° (WNW) 08:07:53 145.795 - 145.815
LilacSat-2 30 Apr 08:04:58 08:08:12 26° 291° (WNW) 08:11:25 437.200
SO-50 30 Apr 08:09:31 08:12:09 15° 327° (NNW) 08:14:46 436.795
AAUSAT CUBESAT 2 30 Apr 08:11:01 08:13:16 14° 90° (E) 08:15:30 437.432
HO-68 30 Apr 08:11:12 08:18:09 48° 100° (E) 08:25:03 435.675
RS-15 30 Apr 08:22:36 08:34:43 71° 310° (NW) 08:47:09 29.354- 29.394
NUDT-PHONESAT 30 Apr 08:22:56 08:25:46 21° 293° (WNW) 08:28:36 437.300
XW-2F 30 Apr 08:24:13 08:26:48 18° 294° (WNW) 08:29:24 145.980 - 146.000
UWE-3 30 Apr 08:28:12 08:31:17 19° 93° (E) 08:34:25 435.000/436.395/437.385
ISS 30 Apr 08:36:27 08:39:39 52° 334° (NNW) 08:42:52 437.550
CUTE 1.7 + AOD 2 30 Apr 08:37:15 08:41:35 86° 104° (ESE) 08:45:53 437.475
PCSat 30 Apr 08:40:52 08:43:15 13° 31° (NNE) 08:45:38 145.827
CUBEBUG 2 30 Apr 08:49:21 08:53:27 53° 100° (E) 08:57:37 437.445
SEEDS 30 Apr 08:49:22 08:53:39 77° 103° (ESE) 08:57:54 437.485
TIGRISAT 30 Apr 08:56:05 08:58:12 14° 62° (ENE) 09:00:20 435.000
XW-2A 30 Apr 09:01:01 09:04:10 38° 287° (WNW) 09:07:18 145.665 - 145.685
PRISM 30 Apr 09:04:02 09:07:32 26° 67° (ENE) 09:11:02 437.425
M-CUBED/EXP-1 PRIME 30 Apr 09:04:15 09:05:26 11° 267° (W) 09:06:38 437.505
O/OREOS (USA 219) 30 Apr 09:06:18 09:09:42 21° 101° (E) 09:13:06 437.305
CUTE-I 30 Apr 09:11:21 09:14:28 16° 302° (WNW) 09:17:33 437.470
ZACube-1 30 Apr 09:13:40 09:17:34 34° 97° (E) 09:21:31 437.345
UNISAT 6 30 Apr 09:17:03 09:20:30 23° 66° (ENE) 09:23:54 437.425
AO-73 30 Apr 09:18:01 09:21:56 35° 97° (E) 09:25:54 145.935
Tancredo 1 30 Apr 09:19:57 09:22:38 26° 346° (NNW) 09:25:19 437.200
Oscar 11 30 Apr 09:28:31 09:32:35 37° 97° (E) 09:36:38 .
FO-29 30 Apr 09:44:52 09:50:28 43° 69° (ENE) 09:55:36 435.910
AAUSAT CUBESAT 2 30 Apr 09:44:57 09:49:03 53° 287° (WNW) 09:53:07 437.432
DELFI C3 30 Apr 09:52:12 09:55:07 19° 93° (E) 09:58:01 145.870
HO-68 30 Apr 09:59:14 10:05:41 37° 299° (WNW) 10:12:08 435.675
UWE-3 30 Apr 10:03:58 10:07:53 39° 289° (WNW) 10:11:52 435.000/436.395/437.385
ISS 30 Apr 10:13:59 10:16:39 22° 354° (N) 10:19:19 437.550
CUTE 1.7 + AOD 2 30 Apr 10:15:46 10:16:44 11° 300° (WNW) 10:17:41 437.475
PCSat 30 Apr 10:22:40 10:27:59 51° 53° (NE) 10:33:15 145.827
QB50P2 30 Apr 10:24:42 10:25:29 10° 59° (ENE) 10:26:16 145.880/145.840
SEEDS 30 Apr 10:27:11 10:28:43 12° 300° (WNW) 10:30:15 437.485
CUBEBUG 2 30 Apr 10:27:13 10:29:41 15° 297° (WNW) 10:32:10 437.445
TIGRISAT 30 Apr 10:30:06 10:34:24 65° 258° (WSW) 10:38:40 435.000
PRISM 30 Apr 10:39:06 10:42:43 29° 264° (W) 10:46:22 437.425
RS-15 30 Apr 10:39:14 10:49:58 33° 340° (NNW) 11:00:45 29.354- 29.394
NANOSAT C BR1 30 Apr 10:41:00 10:43:00 13° 61° (ENE) 10:45:00 145.865
O/OREOS (USA 219) 30 Apr 10:44:23 10:48:47 44° 299° (WNW) 10:53:13 437.305
ZACube-1 30 Apr 10:50:19 10:53:40 23° 293° (WNW) 10:57:05 437.345
UNISAT 6 30 Apr 10:53:05 10:57:02 34° 263° (W) 11:00:59 437.425
AO-73 30 Apr 10:54:40 10:58:00 23° 293° (WNW) 11:01:23 145.935
Tancredo 1 30 Apr 10:56:44 10:59:12 21° 6° (N) 11:01:40 437.200
AIST 2D 30 Apr 11:03:22 11:06:34 36° 72° (ENE) 11:09:48 435.315
OBJECT BX 30 Apr 11:04:40 11:08:21 79° 283° (WNW) 11:12:00 145.990 - 145.960
Oscar 11 30 Apr 11:05:08 11:08:29 22° 294° (WNW) 11:11:51 .
DUCHIFAT 1 30 Apr 11:07:03 11:10:16 22° 66° (ENE) 11:13:28 145.980
EO-79 30 Apr 11:09:43 11:13:18 28° 68° (ENE) 11:16:53 145.935-145.965
DELFI C3 30 Apr 11:26:20 11:30:00 35° 289° (WNW) 11:33:38 145.870
FO-29 30 Apr 11:30:31 11:35:41 29° 264° (W) 11:40:27 435.910
ESTCUBE 1 30 Apr 11:31:22 11:34:26 18° 91° (E) 11:37:29 437.505/2401.250
POLYITAN 1 30 Apr 11:49:33 11:53:45 74° 75° (ENE) 11:57:57 437.675
ISS 30 Apr 11:50:58 11:53:50 28° 14° (NNE) 11:56:43 437.550
BUGSAT 1 30 Apr 11:51:45 11:54:52 21° 66° (ENE) 11:57:59 437.445
LO-87 30 Apr 11:54:28 11:57:58 52° 99° (E) 12:01:26 145.935 - 145.965
QB50P2 30 Apr 11:56:24 12:00:36 85° 252° (WSW) 12:04:51 145.880/145.840
AO-85 30 Apr 12:06:11 12:10:25 67° 121° (ESE) 12:14:25 145.980
PCSat 30 Apr 12:06:39 12:11:03 26° 252° (WSW) 12:15:27 145.827
NANOSAT C BR1 30 Apr 12:14:03 12:18:12 65° 258° (WSW) 12:22:23 145.865
Oscar 19 30 Apr 12:20:48 12:24:31 20° 61° (ENE) 12:28:14 437.125/150
Tancredo 1 30 Apr 12:32:33 12:35:34 50° 25° (NNE) 12:38:35 437.200
AIST 2D 30 Apr 12:38:06 12:39:57 14° 269° (W) 12:41:49 435.315
DUCHIFAT 1 30 Apr 12:41:53 12:45:44 35° 263° (W) 12:49:36 145.980
EO-79 30 Apr 12:45:23 12:49:00 27° 265° (W) 12:52:38 145.935-145.965
Gurwin Techsat 1B 30 Apr 12:56:04 13:00:20 25° 63° (ENE) 13:04:37 435.225
RS-15 30 Apr 12:56:52 13:07:26 31° 15° (NNE) 13:17:45 29.354- 29.394
AO-7 30 Apr 12:57:43 13:01:17 14° 40° (NE) 13:04:52 .
VELOX 1 30 Apr 13:01:26 13:05:38 41° 98° (E) 13:09:47 145.980
ESTCUBE 1 30 Apr 13:07:06 13:11:31 50° 289° (WNW) 13:15:54 437.505/2401.250
SO-50 30 Apr 13:16:13 13:19:54 24° 41° (NE) 13:23:34 436.795
BEESAT 3 30 Apr 13:19:03 13:22:59 77° 123° (ESE) 13:26:59 437.485
BUGSAT 1 30 Apr 13:26:16 13:30:03 34° 263° (W) 13:33:48 437.445
ISS 30 Apr 13:27:19 13:30:35 75° 213° (SSW) 13:33:49 437.550
BEESAT 2 30 Apr 13:28:09 13:31:46 36° 117° (ESE) 13:35:29 435.950
POLYITAN 1 30 Apr 13:29:38 13:30:02 10° 272° (W) 13:30:27 437.675
LO-87 30 Apr 13:29:45 13:30:58 11° 297° (WNW) 13:32:11 145.935 - 145.965
SPROUT 30 Apr 13:31:10 13:35:26 84° 106° (ESE) 13:39:40 437.525
50 SAT 30 Apr 13:33:13 13:36:39 53° 100° (E) 13:40:02 437.505
DX 1 30 Apr 13:39:08 13:43:14 39° 98° (E) 13:47:17 434.975-435.025
AO-85 30 Apr 13:48:24 13:51:10 17° 320° (NW) 13:53:53 145.980
ITAMSAT 1 30 Apr 13:57:04 13:59:57 15° 58° (ENE) 14:02:50 435.822/435.867
Oscar 19 30 Apr 13:58:17 14:03:22 59° 259° (W) 14:08:31 437.125/150
Tancredo 1 30 Apr 14:08:46 14:11:16 23° 223° (SW) 14:13:47 437.200
UKube-1 30 Apr 14:33:02 14:37:22 80° 285° (WNW) 14:41:40 .
Gurwin Techsat 1B 30 Apr 14:34:53 14:40:00 47° 261° (W) 14:45:09 435.225
YUBILEINY 30 Apr 14:38:22 14:46:35 42° 71° (ENE) 14:54:46 435.215
VELOX 1 30 Apr 14:38:29 14:41:49 21° 296° (WNW) 14:45:08 145.980
ITUPSAT 1 30 Apr 14:39:23 14:40:01 10° 88° (E) 14:40:39 437.325
AO-7 30 Apr 14:44:16 14:52:09 51° 62° (ENE) 15:00:04 .
SO-50 30 Apr 14:56:15 15:00:38 52° 240° (WSW) 15:05:01 436.795
BEESAT 3 30 Apr 14:58:36 15:01:04 16° 322° (NW) 15:03:35 437.485
ISS 30 Apr 15:06:06 15:06:32 10° 230° (SW) 15:06:58 437.550
BEESAT 2 30 Apr 15:06:15 15:09:37 26° 316° (NW) 15:13:03 435.950
50 SAT 30 Apr 15:08:08 15:09:07 11° 297° (WNW) 15:10:06 437.505
SPROUT 30 Apr 15:09:43 15:10:41 11° 301° (WNW) 15:11:39 437.525
RS-15 30 Apr 15:10:54 15:23:08 62° 46° (NE) 15:34:47 29.354- 29.394
DX 1 30 Apr 15:15:51 15:19:11 22° 296° (WNW) 15:22:30 434.975-435.025
BEESAT 30 Apr 15:30:18 15:34:40 35° 97° (E) 15:39:01 436.000
ITAMSAT 1 30 Apr 15:33:32 15:38:44 82° 256° (WSW) 15:43:57 435.822/435.867
ITUPSAT 1 30 Apr 16:13:41 16:18:30 90° 272° (W) 16:23:18 437.325
MOZHAYETS 4 30 Apr 16:21:33 16:26:08 60° 101° (E) 16:30:42
YUBILEINY 30 Apr 16:35:14 16:43:28 47° 272° (W) 16:51:44 435.215
AO-7 30 Apr 16:37:26 16:45:04 40° 261° (W) 16:52:45 .
DOVE 4 30 Apr 16:46:12 16:49:52 20° 63° (ENE) 16:53:27 437.250
XW-2B 30 Apr 17:00:38 17:01:11 10° 61° (ENE) 17:01:43 145.730 - 145.750
BEESAT 30 Apr 17:08:17 17:12:19 28° 294° (WNW) 17:16:21 436.000
XW-2C 30 Apr 17:11:12 17:13:11 14° 64° (ENE) 17:15:11 145.795 - 145.815
CUTE-I 30 Apr 17:14:51 17:18:56 23° 62° (ENE) 17:23:00 437.470
LilacSat-2 30 Apr 17:14:56 17:17:18 16° 65° (ENE) 17:19:41 437.200
ITAMSAT 1 30 Apr 17:18:24 17:18:59 10° 273° (W) 17:19:33 435.822/435.867
RS-15 30 Apr 17:24:01 17:35:18 47° 251° (WSW) 17:46:06 29.354- 29.394
CUBESAT XI-V 30 Apr 17:24:34 17:29:09 48° 99° (E) 17:33:42 437.345
NUDT-PHONESAT 30 Apr 17:30:14 17:32:42 17° 66° (ENE) 17:35:12 437.300
XW-2F 30 Apr 17:32:08 17:35:04 22° 68° (ENE) 17:38:02 145.980 - 146.000
KKS-1 30 Apr 17:37:53 17:42:19 64° 102° (ESE) 17:46:41 437.445
ITUPSAT 1 30 Apr 17:53:43 17:55:36 12° 303° (WNW) 17:57:30 437.325
STARS 30 Apr 17:56:55 18:01:07 44° 99° (E) 18:05:16 437.465
MOZHAYETS 4 30 Apr 17:59:55 18:02:50 17° 298° (WNW) 18:05:44
NO-84 30 Apr 18:08:03 18:11:29 31° 134° (SE) 18:14:40 435.350 FM
DOVE 4 30 Apr 18:21:51 18:27:05 62° 259° (W) 18:32:11 437.250
XW-2D 30 Apr 18:23:59 18:27:44 81° 258° (WSW) 18:31:30 145.860 - 145.880
KAITUO 1B 30 Apr 18:29:36 18:33:17 89° 226° (SW) 18:37:01 145.475/437.950
XW-2B 30 Apr 18:31:05 18:34:49 68° 259° (W) 18:38:34 145.730 - 145.750
HO-68 30 Apr 18:41:27 18:48:04 43° 63° (ENE) 18:54:43 435.675
XW-2C 30 Apr 18:43:23 18:46:59 46° 261° (W) 18:50:38 145.795 - 145.815
LilacSat-2 30 Apr 18:47:44 18:51:16 39° 262° (W) 18:54:51 437.200
CUTE-I 30 Apr 18:53:22 18:58:35 54° 259° (W) 19:03:50 437.470
AO-85 30 Apr 18:56:36 18:58:38 13° 36° (NE) 19:00:39 145.980
CUBESAT XI-V 30 Apr 19:02:43 19:06:11 21° 296° (WNW) 19:09:38 437.345
NUDT-PHONESAT 30 Apr 19:03:02 19:06:23 34° 263° (W) 19:09:46 437.300
AAUSAT CUBESAT 2 30 Apr 19:03:26 19:05:11 12° 61° (ENE) 19:06:57 437.432
XW-2F 30 Apr 19:05:56 19:09:06 26° 264° (W) 19:12:19 145.980 - 146.000
O/OREOS (USA 219) 30 Apr 19:13:26 19:17:55 51° 62° (ENE) 19:22:21 437.305
KKS-1 30 Apr 19:15:53 19:18:21 15° 299° (WNW) 19:20:49 437.445
UWE-3 30 Apr 19:27:02 19:30:03 19° 66° (ENE) 19:33:03 435.000/436.395/437.385
CUTE 1.7 + AOD 2 30 Apr 19:30:58 19:35:10 72° 76° (ENE) 19:39:25 437.475
XW-2A 30 Apr 19:33:16 19:36:36 82° 77° (ENE) 19:39:58 145.665 - 145.685
STARS 30 Apr 19:34:01 19:37:09 20° 296° (WNW) 19:40:17 437.465
SEEDS 30 Apr 19:42:05 19:46:14 62° 74° (ENE) 19:50:26 437.485
NO-84 30 Apr 19:45:30 19:48:59 39° 329° (NNW) 19:52:11 435.350 FM
CUBEBUG 2 30 Apr 19:48:44 19:52:54 52° 73° (ENE) 19:57:00 437.445
STRAND 1 30 Apr 19:50:29 19:55:03 32° 96° (E) 19:59:35 437.568
BEESAT 3 30 Apr 19:58:17 20:00:05 13° 34° (NE) 20:01:53 437.485
ZACube-1 30 Apr 20:11:03 20:14:45 32° 69° (ENE) 20:18:26 437.345
AO-73 30 Apr 20:15:07 20:18:47 32° 69° (ENE) 20:22:28 145.935
Oscar 11 30 Apr 20:24:39 20:28:33 35° 69° (ENE) 20:32:29 .
HO-68 30 Apr 20:29:07 20:35:47 41° 262° (W) 20:42:31 435.675
AO-85 30 Apr 20:35:36 20:39:35 88° 56° (NE) 20:43:44 145.980
AAUSAT CUBESAT 2 30 Apr 20:35:57 20:40:05 69° 259° (W) 20:44:16 437.432
M-CUBED/EXP-1 PRIME 30 Apr 20:38:02 20:42:00 48° 105° (ESE) 20:45:38 437.505
DELFI C3 30 Apr 20:39:48 20:42:05 15° 63° (ENE) 20:44:22 145.870
O/OREOS (USA 219) 30 Apr 20:53:54 20:56:53 17° 260° (W) 20:59:51 437.305
UWE-3 30 Apr 21:02:18 21:06:16 39° 262° (W) 21:10:11 435.000/436.395/437.385
CUTE 1.7 + AOD 2 30 Apr 21:10:35 21:11:30 11° 272° (W) 21:12:26 437.475
SEEDS 30 Apr 21:20:36 21:22:20 12° 271° (W) 21:24:05 437.485
NO-84 30 Apr 21:25:15 21:27:12 14° 349° (NNW) 21:29:05 435.350 FM
CUBEBUG 2 30 Apr 21:27:27 21:29:50 14° 269° (W) 21:32:11 437.445
STRAND 1 30 Apr 21:29:39 21:34:12 34° 293° (WNW) 21:38:45 437.568
BEESAT 3 30 Apr 21:34:22 21:38:24 74° 55° (NE) 21:42:23 437.485
OBJECT BX 30 Apr 21:43:38 21:47:10 53° 74° (ENE) 21:50:44 145.990 - 145.960
BEESAT 2 30 Apr 21:44:03 21:47:53 38° 48° (NE) 21:51:41 435.950
ZACube-1 30 Apr 21:47:46 21:51:05 23° 266° (W) 21:54:23 437.345
AO-73 30 Apr 21:51:47 21:55:04 22° 266° (W) 21:58:22 145.935
Oscar 11 30 Apr 22:01:22 22:04:46 22° 267° (W) 22:08:11 .
DELFI C3 30 Apr 22:12:34 22:16:27 51° 261° (W) 22:20:23 145.870
M-CUBED/EXP-1 PRIME 30 Apr 22:13:24 22:16:00 17° 304° (NW) 22:18:29 437.505
PRISM 30 Apr 22:18:21 22:22:06 32° 97° (E) 22:25:48 437.425
TIGRISAT 30 Apr 22:20:14 22:23:35 22° 94° (E) 22:26:57 435.000
LO-87 30 Apr 22:32:07 22:35:13 27° 70° (ENE) 22:38:19 145.935 - 145.965
ESTCUBE 1 30 Apr 22:32:25 22:35:43 20° 64° (ENE) 22:39:02 437.505/2401.250
FO-29 30 Apr 22:36:15 22:40:51 29° 96° (E) 22:45:44 435.910
UNISAT 6 30 Apr 22:42:24 22:46:29 39° 98° (E) 22:50:36 437.425
NO-84 30 Apr 23:04:00 23:05:48 14° 11° (N) 23:07:32 435.350 FM
BEESAT 3 30 Apr 23:14:07 23:15:23 11° 252° (WSW) 23:16:39 437.485
OBJECT BX 30 Apr 23:20:18 23:21:11 11° 270° (W) 23:22:04 145.990 - 145.960
BEESAT 2 30 Apr 23:22:13 23:25:27 23° 246° (WSW) 23:28:39 435.950
